SCP
0 0 0 0 0 0 0 0 0 0 0 0 0 0 0 0 0 0 0 0 0 0 0 0 0 0 0 0 0 0 0 0 0 0 0 0 0 0 0 0 0 0 0 0
0 0 0 0 0 0 0 0 0 0 0 0 0 0 0 0 0 0 0 0 0 0 0 0 0 0 0 0 0 0 0 0 0 0 0 0 0 0 0 0 0 0 0 0
0 0 0 0 0 0 0 0 0 0 0 0 0 0 0 0 0 0 0 0 0 0 0 0 0 0 0 0 0 0 0 0 0 0 0 0 0 0 0 0 0 0 0 0
0 0 0 0 0 0 0 0 0 0 0 0 0 0 0 0 0 0 0 0 0 0 0 0 0 0 0 0 0 0 0 0 0 0 0 0 0 0 0 0 0 0 0 0
0 0 0 0 0 0 0 0 0 0 0 0 0 0 0 0 0 0 0 0 0 0 0 0 0 0 0 0 0 0 0 0 0 0 0 0 0 0 0 0 0 0 0 0
0 0 0 0 0 0 0 0 0 0 0 0 0 0 0 0 0 0 0 0 0 0 0 0 0 0 0 0 0 0 0 0 0 0 0 0 0 0 0 0 0 0 0 0
0 0 0 0 0 0 0 0 0 0 0 0 0 0 0 0 0 0 0 0 0 0 0 0 0 0 0 0 0 0 0 0 0 0 0 0 0 0 0 0 0 0 0 0
0 0 0 0 0 0 0 0 0 0 0 0 0 0 0 0 0 0 0 0 0 0 0 0 0 0 0 0 0 0 0 0 0 0 0 0 0 0 0 0 0 0 0 0
0 0 0 0 0 0 0 0 0 0 0 0 0 0 0 0 0 0 0 0 0 0 0 0 0 0 0 0 0 0 0 0 0 0 0 0 0 0 0 0 0 0 0 0
0 0 0 0 0 0 0 0 0 0 0 0 0 0 0 0 0 0 0 0 0 0 0 0 0 0 0 0 0 0 0 0 0 0 0 0 0 0 0 0 0 0 0 0
0 0 0 0 0 0 0 0 0 0 0 0 0 0 0 0 0 0 0 0 0 0 0 0 0 0 0 0 0 0 0 0 0 0 0 0 0 0 0 0 0 0 0 0
1 0 0 0 0 0 0 0 0 0 0 0 0 0 0 0 1 1 1 1 0 0 0 0 0 0 0 0 1 1 0 0 0 0 0 0 0 0 0 0 0 0 0 0
0 0 0 0 0 0 0 0 0 0 0 0 0 0 0 0 1 1 1 0 0 0 0 0 0 0 0 1 1 1 1 0 0 0 0 0 0 0 0 0 0 0 0 0
0 0 0 0 0 0 0 0 0 0 0 0 0 0 0 0 1 1 0 0 0 0 0 0 0 0 1 1 1 1 1 0 0 0 0 0 0 0 0 0 0 0 0 0
0 0 0 0 0 0 0 0 0 0 0 0 0 0 0 0 0 0 0 0 0 0 0 0 0 1 1 1 1 1 0 0 0 0 0 0 0 0 0 0 0 0 0 0
0 0 0 0 0 0 0 0 0 0 0 0 0 0 0 0 0 0 0 0 0 0 0 1 1 1 1 1 1 1 0 0 0 0 0 0 0 0 0 0 0 0 0 0
0 0 0 0 0 0 0 0 0 0 0 0 0 0 0 0 0 0 0 0 0 1 1 1 1 1 1 1 1 1 0 0 0 0 0 0 0 0 0 0 0 0 0 0
0 0 0 0 0 0 0 0 0 0 0 0 0 0 0 0 0 0 0 0 0 1 1 1 1 1 1 1 1 0 0 0 0 0 0 0 0 0 0 0 0 0 0 0
0 0 0 0 0 0 0 0 0 0 0 0 0 0 0 0 0 0 0 0 0 0 1 0 0 0 1 1 1 0 0 0 0 0 0 0 0 0 0 0 0 0 0 0
0 0 0 0 0 0 0 0 0 0 0 0 0 0 0 0 0 0 0 0 0 0 0 0 0 0 0 0 0 0 0 0 0 0 0 0 0 0 0 0 0 0 0 0
0 0 0 0 0 0 0 0 0 0 0 0 0 0 0 0 0 0 0 0 0 0 0 0 0 0 0 0 0 0 0 0 0 0 0 0 0 0 0 0 0 0 0 0
0 0 0 0 0 0 0 0 0 0 0 0 0 0 0 0 0 0 0 0 0 0 0 0 0 0 0 0 0 0 0 0 0 0 0 0 0 0 0 0 0 0 0 0
0 0 0 0 0 0 0 0 0 0 0 0 0 0 0 0 0 0 0 0 0 0 0 0 0 0 0 0 0 0 0 0 0 0 0 0 0 0 0 0 0 0 0 0
0 0 0 0 0 0 0 0 0 0 0 0 0 0 0 0 0 0 0 0 0 0 0 0 0 0 0 0 0 0 0 0 0 0 0 0 0 0 0 0 0 0 0 0
0 0 0 0 0 0 0 0 0 0 0 0 0 0 0 0 0 0 0 0 0 0 0 0 0 0 0 0 0 0 0 0 0 0 0 0 0 0 0 0 0 0 0 0
0 0 0 0 0 0 0 0 0 0 0 0 0 0 0 0 0 0 0 0 0 0 0 0 0 0 0 0 0 0 0 0 0 0 0 0 0 0 0 0 0 0 0 0
0 0 0 0 0 0 0 0 0 0 0 0 0 0 0 0 0 0 0 0 0 0 0 0 0 0 0 0 0 0 0 0 0 0 0 0 0 0 0 0 0 0 0 0
Wind_Speed
8 10 11 12 11 9 7 6 4 3 6 9 9 9 9 10 9 8 9 8 7 5 4 3 2 1 0 1 1 2 3 4 3 4 4 4 4 5 5 5 7 6 6 6
11 11 12 13 10 8 7 6 5 4 2 10 10 9 9 9 9 8 8 8 7 6 5 3 2 1 0 0 1 2 3 4 3 4 4 4 5 5 5 5 6 6 6 7
10 10 10 9 7 7 6 4 4 2 4 10 9 8 9 8 8 7 7 7 7 6 5 4 2 2 1 1 1 2 2 3 3 4 4 4 6 6 5 5 6 6 6 7
9 9 10 5 5 4 4 4 2 2 6 7 7 8 8 9 8 7 7 7 7 6 6 5 3 3 1 2 2 2 3 3 3 4 4 5 5 5 5 5 5 5 6 7
8 8 8 8 7 3 3 3 2 3 6 6 7 7 8 9 9 8 7 7 7 6 6 5 4 3 2 2 3 3 3 3 4 4 5 5 6 5 5 5 6 6 6 6
8 8 7 4 5 3 2 3 2 4 5 5 5 4 6 11 10 9 8 7 7 7 6 5 4 2 2 3 3 3 3 3 4 4 5 6 6 5 5 5 6 7 6 6
9 9 5 1 3 4 3 2 3 4 5 5 4 2 8 11 10 10 9 8 8 7 5 5 4 3 3 3 3 3 3 4 4 5 5 6 6 5 5 6 7 7 7 7
5 7 2 1 2 2 4 2 1 1 3 5 7 9 10 11 10 10 9 9 9 6 5 5 5 4 4 3 3 3 4 5 5 5 7 6 4 5 5 6 7 7 6 7
3 1 3 5 2 2 3 2 2 0 3 5 7 8 10 10 10 10 9 8 7 7 6 6 5 4 4 3 3 3 4 5 6 6 6 6 6 7 6 5 5 5 5 5
3 5 4 7 5 1 1 2 1 1 2 4 6 8 10 10 9 8 8 8 7 7 6 5 5 5 4 4 4 4 6 6 6 6 7 6 5 5 5 4 4 4 5 5
3 1 5 2 3 4 2 2 1 1 2 3 5 6 9 9 9 8 7 7 6 5 5 5 5 5 5 4 4 5 6 6 7 8 8 5 5 5 5 4 4 4 5 5
2 5 3 4 5 6 4 2 2 0 1 3 4 5 8 8 8 7 7 6 6 6 5 5 5 5 5 5 5 6 6 7 7 7 6 5 5 5 6 7 7 9 9 7
4 4 4 4 5 7 5 2 1 1 1 2 3 4 6 7 7 7 6 6 6 6 5 5 5 5 5 5 5 6 6 7 7 7 7 6 5 5 5 5 8 10 11 12
4 4 4 4 4 5 5 3 1 2 3 3 4 4 4 5 6 6 5 5 4 4 4 4 5 5 5 5 5 6 8 8 8 7 7 7 6 5 5 5 4 4 7 12
3 3 3 4 4 5 5 4 4 5 5 5 5 4 4 4 4 4 3 2 3 3 4 4 5 5 4 5 6 7 8 7 6 6 7 6 7 6 6 5 4 4 4 3
3 3 4 4 4 5 6 6 6 5 5 5 5 4 4 3 2 2 2 2 2 3 3 3 4 4 4 5 5 6 7 11 9 7 8 7 6 6 5 4 4 4 5 4
4 4 5 5 5 6 6 7 8 7 7 5 4 4 3 2 2 1 0 1 2 3 2 3 3 4 5 5 6 7 8 7 8 8 8 7 6 5 5 5 5 4 4 3
6 6 6 6 6 7 8 8 8 7 7 7 6 5 3 3 2 2 2 3 3 3 3 3 4 5 6 6 5 6 7 8 7 6 6 5 5 5 5 6 6 5 4 3
9 8 8 8 8 8 8 8 7 6 6 6 5 4 3 3 3 3 3 4 5 4 4 4 5 6 6 5 5 5 8 9 8 7 6 5 5 6 5 6 5 4 4 4
8 8 8 8 8 8 7 7 7 6 5 5 5 4 3 3 4 4 4 5 4 3 3 4 5 6 6 4 5 7 8 9 9 7 6 6 6 5 5 5 5 5 4 3
7 7 7 6 6 6 7 7 6 6 5 5 4 4 4 4 5 5 5 5 2 2 4 4 4 4 5 5 6 7 8 8 8 6 6 6 5 5 5 5 5 4 3 3
5 6 6 6 6 6 6 5 6 6 5 5 6 6 5 5 6 5 5 3 2 3 4 5 5 5 6 7 8 8 8 8 7 6 6 5 5 5 5 4 4 4 3 3
4 4 5 6 6 6 7 6 6 6 6 6 6 6 6 5 5 6 6 3 4 3 5 5 4 5 7 8 9 9 8 8 7 6 6 5 4 4 4 4 3 3 3 3
3 4 5 6 7 8 8 8 7 6 7 7 6 5 4 4 4 4 4 4 3 4 6 4 5 7 8 8 8 8 7 6 6 5 5 4 4 4 3 3 3 2 3 3
5 6 7 7 7 7 7 7 8 7 7 5 5 4 4 4 5 5 6 7 5 6 7 5 6 7 7 7 8 8 7 5 5 5 5 4 4 4 4 4 3 2 2 2
6 6 6 5 6 6 7 7 6 6 6 5 5 5 6 6 7 6 6 8 10 7 8 6 5 5 6 7 7 7 6 5 5 5 5 4 5 4 3 3 4 3 3 2
7 7 5 7 6 5 5 6 6 6 6 6 6 6 7 7 8 8 9 8 7 8 8 7 7 7 7 6 7 7 6 5 5 4 4 4 4 4 4 4 3 3 3 2
Wind_Direction
266 247 246 253 254 250 244 254 259 208 178 171 160 154 149 148 156 160 157 159 155 149 146 149 150 160 262 330 10 349 323 317 327 326 316 309 308 304 301 301 303 304 305 302
276 262 264 260 254 252 253 253 258 255 141 131 141 146 147 155 164 167 168 166 158 155 153 155 166 186 168 322 339 308 307 313 324 316 312 311 302 294 296 298 299 299 300 299
282 294 287 275 273 260 248 244 255 262 118 134 144 149 153 159 167 170 170 159 151 151 146 147 160 151 214 254 245 268 287 304 313 312 313 313 310 313 309 307 302 301 298 295
276 280 277 280 272 263 253 238 220 131 129 140 142 147 156 161 162 164 159 153 147 148 145 150 150 155 202 252 251 261 276 292 307 310 312 311 304 303 304 302 300 295 293 293
268 268 271 282 288 274 273 259 166 145 134 131 135 150 161 155 152 152 146 138 139 146 146 146 154 158 201 254 261 271 286 305 312 312 307 303 301 302 301 298 296 293 290 287
252 259 268 249 239 252 251 228 126 127 128 137 164 201 156 144 144 141 136 139 144 148 145 146 148 155 224 254 267 287 305 312 310 304 298 294 291 290 292 289 286 288 287 285
249 260 256 234 204 202 235 110 100 128 144 169 167 101 119 136 139 140 143 146 148 149 149 151 157 171 228 256 273 292 303 299 293 290 284 277 276 277 281 284 286 284 284 281
260 270 268 38 265 52 88 111 198 149 142 132 122 131 140 144 146 150 155 158 158 156 157 160 169 186 225 247 267 286 289 288 286 285 287 295 294 282 276 277 283 283 282 281
154 232 319 322 11 120 143 244 271 162 132 144 152 155 150 150 153 157 163 162 164 166 172 175 179 193 226 240 251 266 274 277 280 283 278 276 277 281 279 271 279 293 298 299
174 184 212 264 271 248 200 241 250 178 162 164 160 160 155 155 158 162 165 164 172 176 184 185 188 202 218 227 234 252 265 271 273 271 270 267 262 274 284 289 295 303 307 312
254 187 176 227 338 334 345 332 293 219 181 172 164 163 155 154 160 164 166 168 176 182 191 194 193 204 217 222 227 250 264 270 274 274 272 268 264 260 269 274 271 273 291 301
28 33 11 35 9 338 349 341 310 272 171 168 163 156 153 156 159 164 170 170 178 190 201 204 203 212 220 222 228 244 260 267 274 280 281 280 280 280 249 245 242 239 242 255
28 12 9 15 2 331 317 318 337 100 143 157 143 147 155 153 155 162 171 176 187 202 209 208 215 223 226 224 231 243 259 270 277 283 289 288 284 284 285 259 245 245 245 247
23 32 13 1 355 336 340 356 35 94 93 106 114 118 132 137 145 160 173 182 192 208 216 223 232 238 237 232 231 242 255 263 263 269 276 282 283 282 286 288 285 281 245 238
38 42 31 18 11 9 10 26 53 70 71 83 92 97 109 122 136 148 153 178 193 217 233 245 251 253 245 249 249 250 258 264 265 273 279 284 284 286 288 293 298 301 303 260
60 51 52 47 39 35 29 30 41 57 70 73 75 80 83 92 111 124 139 168 208 239 251 259 268 279 276 262 261 261 257 256 257 271 280 282 282 286 292 294 299 305 305 306
78 66 56 48 40 39 38 40 40 38 46 55 60 65 67 69 73 78 249 250 243 249 258 268 282 287 280 267 264 269 273 273 245 247 262 272 280 288 291 291 291 293 294 289
74 73 68 54 44 44 41 42 44 41 41 43 47 54 48 44 23 359 340 321 293 270 267 279 285 282 275 271 266 271 280 285 279 266 267 270 277 281 282 284 285 291 294 273
84 76 69 60 51 48 43 37 35 36 35 36 35 39 33 20 4 343 334 316 302 298 305 307 300 285 278 276 278 268 271 277 280 279 280 273 263 267 273 279 284 288 291 293
80 74 65 56 48 40 35 31 28 27 24 23 14 7 358 346 336 325 316 296 297 313 325 331 305 285 281 284 275 276 274 274 277 279 281 280 278 281 281 282 287 288 289 294
67 61 56 47 38 28 22 14 7 4 5 2 349 337 335 327 316 308 296 294 329 360 332 316 296 312 328 328 292 282 280 279 282 282 281 280 281 286 286 290 294 290 291 300
48 35 25 17 12 5 359 349 339 332 332 333 330 327 324 317 309 302 291 298 350 27 334 320 331 356 340 317 298 289 283 281 280 280 281 281 282 286 287 293 299 296 296 306
28 10 353 346 343 335 330 324 320 319 317 315 310 305 306 315 309 306 310 338 350 1 323 326 332 316 305 298 295 291 290 288 288 286 285 284 281 282 287 293 298 300 309 317
345 334 326 323 322 315 309 308 309 306 299 293 286 281 285 293 301 311 326 333 341 329 316 315 292 292 287 287 293 294 295 296 299 301 302 306 306 302 297 296 297 304 311 320
315 309 301 299 297 298 304 300 293 285 283 292 306 327 328 334 332 331 325 320 319 306 309 299 273 273 278 294 298 301 303 306 308 309 303 298 298 306 308 307 307 316 314 317
282 279 285 289 291 290 290 296 305 313 320 327 328 336 337 334 326 321 316 317 320 317 307 305 305 287 294 304 309 313 313 310 301 296 301 309 309 309 304 305 313 321 321 328
268 266 258 262 273 283 302 313 313 315 320 323 328 330 324 319 316 318 318 316 317 316 316 316 318 313 309 311 316 319 319 316 318 321 328 326 319 317 320 319 318 325 335 356